Regional Weather Roundup
Issued by NWS

Home | Current Version | Previous Version | Text Only | Print | Product List | Glossary Off
Versions: 1 2 3 4 5 6 7 8 9 10 11 12 13 14 15 16 17 18 19 20 21 22 23 24 25 26 27 28 29 30 31 32 33 34 35 36 37 38 39 40 41 42 43 44 45 46 47 48 49 50

000
ASUS43 KLMK 281410
RWRKY
KENTUCKY REGIONAL WEATHER ROUNDUP
NATIONAL WEATHER SERVICE LOUISVILLE KY
900 AM EST WED JAN 28 2015

NOTE "FAIR" INDICATES FEW OR NO CLOUDS BELOW 12,000 FEET
WITH NO SIGNIFICANT WEATHER AND/OR OBSTRUCTIONS TO VISIBILITY.

KYZ001>023-026-027-061>063-070>075-281500-
WESTERN AND SOUTH CENTRAL KENTUCKY

CITY           SKY/WX    TMP DP  RH WIND       PRES   REMARKS
PADUCAH        CLEAR     30  26  85 E3        30.30S FOG
HENDERSON      PTCLDY    28  23  80 E6        30.34S WCI  22
OWENSBORO      SUNNY     28  19  69 SE7       30.36R WCI  21
HOPKINSVILLE   CLOUDY    31  25  77 E9        30.32R WCI  23
BOWLING GREEN  MOSUNNY   27  17  66 E10       30.35S WCI  17
GLASGOW        SUNNY     25  18  75 E5        30.36S WCI  19
$$

KYZ024-025-028>034-038-045-046-053-281500-
NORTH CENTRAL KENTUCKY

CITY           SKY/WX    TMP DP  RH WIND       PRES   REMARKS
LOUISVILLE/SDF MOSUNNY   22  15  75 SE6       30.39R HAZE    WCI  14
LOUISVILLE/LOU SUNNY     22  14  71 SE5       30.39R WCI  16
FORT KNOX      SUNNY     21  14  76 E9        30.35R WCI  10
$$

KYZ035>037-039>044-047>052-055>060-089>105-281500-
NORTHEAST KENTUCKY

CITY           SKY/WX    TMP DP  RH WIND       PRES   REMARKS
LEXINGTON      SUNNY     20  14  77 CALM      30.36R
COVINGTON      SUNNY     19  15  84 CALM      30.35S FOG
FRANKFORT      SUNNY     19  14  81 CALM      30.37R
$$

KYZ054-064>069-076>088-106>120-281500-
SOUTHEAST KENTUCKY

CITY           SKY/WX    TMP DP  RH WIND       PRES   REMARKS
JACKSON        SUNNY     18  12  77 CALM      30.33R
LONDON         SUNNY     21  12  68 E3        30.34R
SOMERSET       SUNNY     21  14  73 E6        30.38R WCI  14
MIDDLESBORO    SUNNY     20  18  91 CALM      30.36R
MONTICELLO     SUNNY     23  18  81 NE6       30.38R WCI  16
$$




USA.gov is the U.S. government's official web portal to all federal, state and local government web resources and services.